Flag for U.S.A. Weather past 2 weeks in Denver, Colorado, U.S.A.

50 °F

Passing clouds.

Feels Like: 50 °F
Forecast: 48 / 72 °F
Wind: 1 mph from Southwest

Location: Buckley Air Force Base

Current Time: Oct 7, 2015 at 4:29:23 AM

Latest Report: Oct 7, 2015 at 3:58 AM

Visibility: 10 mi

Pressure: 30.08 "Hg (24.82 "Hg at 1593m altitude)

Humidity: 94%

Dew point: 49 °F

Location of DenverLocation

Historic Weather in Denver — Graph


Denver temperature yesterday

Maximum temperature yesterday: 59 °F (at 11:58 AM)
Minimum temperature yesterday: 49 °F (at 4:58 AM)
Average temperature yesterday: 53 °F

Past Weeks' High & Low Weather Summary

High87 °F (Sep 27, 1:58 PM)100% (Sep 29, 3:58 AM)30.25 "Hg (Sep 29, 3:58 AM)
Low40 °F (Oct 5, 3:58 AM)12% (Sep 27, 2:58 PM)29.63 "Hg (Oct 2, 2:58 PM)
Average63 °F60%29.96 "Hg
* Reported Sep 22 2:58 AM — Oct 7 2:58 AM, Denver, Weather by CustomWeather, © 2015

Note: Actual official high and low records may vary slightly from our data, if they occured in-between our weather recording intervals... More about our weather records


Denver weather history for previous 24 hours

Time TempWeatherWind HumidityBarometerVisibility
2:58 AM
Wed, Oct 7
50 °FPassing clouds.7 mph99%30.08 "Hg10 mi
1:58 AM51 °FPassing clouds.10 mph100%30.10 "Hg10 mi
12:58 AM52 °FLight rain. Partly cloudy.8 mph100%30.11 "Hg10 mi
11:58 PM
Tue, Oct 6
53 °FLight rain. Fog.6 mph100%30.13 "Hg6 mi
10:58 PM52 °FPassing clouds.3 mph100%30.15 "Hg9 mi
9:58 PM52 °FLight rain. Passing clouds.6 mph100%30.17 "Hg7 mi
8:58 PM52 °FLight rain. Partly cloudy.2 mph100%30.16 "Hg7 mi
7:58 PM52 °FMostly cloudy.2 mph100%30.16 "Hg7 mi
6:58 PM53 °FLight rain. Fog.10 mph100%30.15 "Hg5 mi
5:58 PM53 °FLight rain. Fog.7 mph100%30.13 "Hg5 mi
4:58 PM55 °FMostly cloudy.10 mph97%30.11 "Hg7 mi
4:03 PM55 °FMostly cloudy.8 mph100%30.25 "Hg7 mi
2:58 PM56 °FLight rain. Mostly cloudy.8 mph93%30.13 "Hg7 mi
1:58 PM58 °FOvercast.7 mph81%30.13 "Hg10 mi
12:58 PM58 °FOvercast.8 mph79%30.14 "Hg7 mi
11:58 AM59 °FMostly cloudy.7 mph75%30.14 "Hg7 mi
10:58 AM54 °FFog.2 mph99%30.16 "Hg4 mi
9:58 AM52 °FFog.2 mph99%30.15 "Hg2 mi
8:58 AM50 °FFog.No wind100%30.14 "Hg0 mi
7:58 AM49 °FFog.2 mph100%30.12 "Hg0 mi
6:58 AM49 °FFog.3 mph100%30.11 "Hg0 mi
5:58 AM50 °FFog.3 mph100%30.08 "Hg6 mi
4:58 AM49 °FFog.No wind100%30.05 "Hg5 mi
Weather by CustomWeather, © 2015

See weather overviewHow to use our weather pages